STARLINK-32440, 61714

Orbit data source: Space-Track

STARLINK-32440, 61714 is a payload satellite owned by SpaceX/Seattle (US) in LEO that was launched on Wed, 30 Oct 2024 UTC via an FALCON 9 launch vehicle from the Air Force Eastern Test Range (AFETR). Payload-class satellites include a variety of spacecraft equipped with specific instruments for various scientific and technological missions. These include communications satellites like Starlink; space stations such as the ISS; scientific satellites like the Hubble; Earth observation satellites from companies like Planet Labs, Umbra, and HawkEye 360; GPS; miniature CubeSats for education and research; and military/defense satellites.

Loading next visibility...
Identifier
61714, 2024-196H
Orbit
LEO
Last TLE update
16 hours ago
Origin
Manufacturer
SpaceX/Seattle
Mission
Operational Commercial Communications
Bus & Motor
STARLINK V2M, Unknown motor
Mass
730 kg wet, ~700 kg dry
Launch date (UTC)
2024-10-30 (8 months ago)
Launch vehicle
FALCON 9
Launch site
Air Force Eastern Test Range (AFETR)
Object type
Payload
Rocket body
Debris
Shape & HBR
Box + 2 Pan, 29 m
Radar Cross Section
36.964 m², Large (>1 m²)

Expand to show TLE details & history

TLE from 16 hours ago
0 STARLINK-32440
1 61714U 24196H   25181.75379702 -.00000294  00000-0  21769-5 0  9994
2 61714  53.1598 191.5851 0000855  75.6812 284.4284 15.30189046 38582
Epoch: 2025-06-30T18:05Z
TLE epoch observation values (Epoch: 2025-06-30T18:05:28.062Z)
Latitude
Longitude
1.15911°
Altitude
476.002 km
Speed
7.629 km/s
True Right ascension
12h 46m 20s
True Declination
0° 00' 00"
Sunlit
Object was in daylight at epoch
Visualization orbit readout
Latitude
51.68415°
Longitude
68.59627°
Altitude
480.867 km
Speed
7.632 km/s
Apparent Right ascension
13h 06m 28s
Apparent Declination
14° 11' 01"
Sunlit
Object is in daylight
Visualization observer readout
Local Sidereal Time
21:44:45
Azimuth
308.018° NW
Elevation
-18.45°
Doppler factor
1
Orbital elements
Apogee altitude
476.09 km
Perigee altitude
474.918 km
Semi-major axis
6,853.641 km
Eccentricity
0.00009
Inclination
53.1598°
RAAN
191.5851°
Arg. of periapsis
75.6812°
True anomaly
Unknown
Mean anomaly
284.4284°
Eccentric anomaly
Unknown
Mean motion
3.82526 °/min
Orbital period
94.11 mins
BSTAR
0.0000021769
Loading maneuver chart data...
Loading SW <> Apogee altitude chart data...
Loading historical data...
Loading historical data...
Loading historical data...
Loading historical data...
Loading historical data...
Loading historical data...
Loading historical data...

STARLINK-32440 Visibility forecast

Observer location: undefined°, undefined°

Span
Click to sort rows by Start time (UTC) header in descending order
Start Az.
Max El. time (UTC)
Max El. Az.
Max El.
End time (UTC)
End Az.
6 mins2025-07-01 10:16:21.870Z310.866° NW2025-07-01 10:19:21.870Z121.943° SE43.665°2025-07-01 10:22:21.870Z129.969° SE
6 mins2025-07-02 03:11:21.870Z229.143° WSW2025-07-02 03:14:21.870Z232.974° WSW44.843°2025-07-02 03:17:21.870Z49.862° ENE
4 mins2025-07-02 04:51:21.870Z308.455° NW2025-07-02 04:52:21.870Z327.926° NNW17.133°2025-07-02 04:55:21.870Z22.79° NE
5 mins2025-07-02 09:47:21.870Z316.084° NNW2025-07-02 09:49:21.870Z6.488° NNE43.636°2025-07-02 09:52:21.870Z123.741° SE
|